Theta_e
310 309 308 308 308 308 310 312 314 315 316 316 312 310 310 311 311 311 312 313 316 318 318 315 317 314 320 322 322 322 316 315 317 319 319 324 321 326 326 328 329 338 338 335 339
311 310 308 308 307 308 308 309 312 313 315 316 316 312 309 310 311 312 317 315 315 317 317 315 318 319 320 321 321 320 316 318 319 320 320 322 323 325 325 325 327 340 339 337 340
307 307 307 307 308 308 309 309 309 311 313 315 316 316 311 310 312 324 320 317 318 317 315 314 318 319 319 320 321 320 317 319 321 323 324 323 323 324 324 323 325 338 341 336 337
307 307 307 309 310 311 311 310 309 309 312 314 316 316 312 310 324 321 320 320 315 319 317 315 317 319 318 316 321 318 320 321 322 323 323 322 323 322 323 324 324 332 342 350 351
306 307 310 313 313 313 313 312 310 311 312 315 316 316 311 315 317 323 320 318 315 314 315 317 320 321 317 319 320 318 318 322 323 323 323 323 322 322 323 323 324 324 342 347 350
306 307 312 313 313 313 313 314 313 314 315 315 316 315 311 316 320 320 320 319 316 314 313 318 321 321 320 318 317 320 320 320 321 322 322 321 321 323 323 323 322 323 323 331 337
306 307 312 313 314 314 314 314 314 314 314 314 314 312 313 316 320 320 319 321 318 318 318 320 319 318 318 317 321 320 316 317 319 321 320 322 319 319 322 322 322 322 323 324 325
306 307 310 313 314 315 316 317 315 315 315 313 312 310 314 320 320 319 319 321 320 318 318 318 318 320 318 319 319 316 316 316 317 319 320 320 317 320 322 323 323 323 323 324 330
306 307 308 313 315 317 317 319 317 317 315 314 322 322 324 322 321 321 318 320 321 319 319 318 319 319 320 317 315 316 315 316 319 320 319 318 317 319 322 323 323 323 324 324 334
307 307 307 311 315 318 319 320 320 321 323 322 323 324 324 321 322 321 319 320 319 320 319 318 319 315 314 315 314 315 316 316 319 321 320 318 318 320 323 323 322 324 324 329 336
307 307 307 312 317 319 319 319 319 326 319 326 323 322 320 320 320 321 319 320 321 319 318 319 316 315 315 315 316 317 317 318 320 322 321 318 320 320 322 323 324 324 324 334 335
307 307 308 313 319 319 320 318 318 318 318 320 321 319 320 319 320 320 320 319 320 319 319 318 317 318 319 319 318 318 318 319 320 321 322 321 321 321 321 322 323 324 324 334 335
306 308 308 309 319 321 321 318 318 318 318 321 320 319 320 320 321 321 320 320 319 319 319 318 319 321 321 320 322 321 320 320 321 321 321 320 320 321 322 323 323 327 325 334 335
306 307 308 309 319 320 316 316 318 317 319 323 320 320 319 320 320 321 321 321 321 320 320 320 321 322 321 321 321 320 322 322 321 320 319 321 319 319 320 319 319 329 332 334 337
307 307 308 308 317 321 317 315 317 318 330 322 320 319 319 320 320 321 320 320 320 320 320 320 321 321 322 322 322 322 321 320 321 320 320 320 318 318 320 321 319 326 330 335 341
307 307 308 309 317 318 315 315 319 323 329 320 320 319 318 319 320 321 321 321 321 319 319 319 321 320 320 321 322 323 323 322 320 318 319 320 319 319 319 322 323 326 334 338 338
307 307 309 309 315 316 315 318 322 327 323 321 320 319 318 318 319 320 320 320 318 319 319 320 320 322 323 322 321 322 322 323 322 319 320 320 321 324 328 325 325 328 334 335 335
307 308 313 317 315 315 316 319 327 324 320 319 318 317 317 318 319 320 320 318 319 320 320 321 323 321 320 323 322 322 319 322 323 323 324 323 328 336 328 323 325 324 331 329 328
307 315 318 321 315 315 316 323 324 320 317 317 317 319 321 320 320 319 318 319 320 319 320 320 321 320 320 321 322 323 322 320 320 323 324 323 326 333 328 326 323 322 320 324 325
308 320 321 318 315 318 320 324 322 317 317 316 317 319 320 318 318 317 318 319 320 318 317 318 319 318 318 322 321 321 320 323 322 325 325 324 332 333 332 326 325 322 321 319 320
311 321 318 319 316 319 323 323 320 317 316 317 317 317 317 318 318 318 318 318 316 316 315 316 318 318 319 322 321 325 325 323 321 326 329 327 332 330 329 326 325 323 321 318 318
316 321 318 318 319 322 320 318 316 317 316 317 317 318 318 318 318 318 318 318 315 315 315 317 317 318 318 317 321 324 323 324 325 325 327 326 330 327 326 324 322 321 322 321 319
315 318 319 318 320 318 320 320 317 317 317 316 316 317 317 317 317 318 318 317 315 315 315 313 313 316 318 318 319 320 319 321 320 322 323 325 327 322 323 324 322 321 319 319 319
317 320 320 317 319 319 318 319 319 316 316 315 315 316 316 317 317 318 318 318 315 315 313 313 314 315 315 316 319 320 320 319 319 321 322 321 324 323 321 320 321 321 320 319 318
319 319 315 318 315 317 318 318 318 318 316 316 316 317 317 318 317 316 316 316 316 314 315 313 314 316 315 316 316 317 318 320 319 317 315 317 320 322 320 319 319 318 318 317 316
315 315 315 316 316 319 318 319 319 318 316 316 316 316 315 316 316 316 315 315 315 314 314 316 316 317 318 317 317 318 317 318 318 314 314 315 316 316 319 320 318 317 317 315 315
313 313 313 315 316 317 318 318 318 316 315 315 315 313 314 315 314 314 313 313 314 312 312 314 314 315 316 317 317 318 317 315 314 313 313 313 314 314 314 315 313 315 315 314 314
Wind_Speed
22 22 22 21 21 19 19 17 16 15 14 14 14 13 14 15 16 19 22 13 6 5 9 9 7 7 4 11 14 19 2 6 10 9 10 17 10 9 3 5 10 9 12 8 14
23 24 23 23 22 20 19 17 16 15 15 14 13 14 14 17 19 20 12 10 12 11 10 8 8 3 9 11 10 5 2 9 13 12 8 15 17 15 7 5 3 15 14 17 25
25 24 24 23 22 21 19 17 16 15 14 13 12 12 12 15 17 3 8 9 8 9 8 9 11 14 15 18 22 18 7 9 24 28 22 12 13 17 12 4 10 11 21 22 21
25 25 24 24 23 21 19 16 15 14 13 12 11 9 9 10 0 7 13 13 6 11 12 12 14 20 8 7 21 7 22 23 30 29 26 6 9 14 13 10 14 8 17 22 19
25 25 23 23 22 19 17 15 13 12 11 10 9 8 7 6 11 8 13 10 6 7 13 12 13 18 7 10 19 7 13 27 25 26 27 12 8 8 16 18 13 7 21 24 25
26 25 22 21 21 19 17 13 10 9 8 7 6 5 4 5 3 5 13 7 4 5 10 10 13 16 16 16 7 20 21 18 25 26 18 6 8 12 13 18 18 18 13 16 22
27 25 20 20 20 19 17 13 11 8 6 4 3 4 7 10 3 9 11 11 4 5 7 7 14 16 19 9 15 18 10 13 17 14 7 18 6 7 17 19 23 22 18 13 11
27 26 20 18 18 16 15 15 12 8 6 3 1 3 7 1 5 6 7 9 6 10 6 12 15 15 18 18 14 9 8 5 9 14 19 12 9 8 21 23 24 21 22 15 3
28 26 21 16 15 15 17 14 8 7 7 3 4 6 9 4 4 5 6 10 9 9 11 11 11 8 13 5 6 5 8 12 14 15 11 13 9 9 23 19 27 19 12 11 22
28 26 22 15 10 14 18 13 9 6 7 2 2 6 4 5 1 12 3 6 8 6 7 12 3 2 4 1 6 8 7 10 11 13 9 12 8 8 20 17 21 15 10 9 26
28 27 22 13 7 9 18 18 14 4 12 10 14 8 9 8 4 3 2 3 9 7 5 12 3 6 12 11 13 12 17 17 16 17 12 10 8 7 14 9 12 13 10 26 26
27 27 22 10 6 7 9 16 12 11 10 12 13 10 6 4 6 8 6 3 8 5 7 5 8 11 13 12 12 12 14 15 15 15 5 6 6 7 6 5 15 20 19 32 29
26 26 23 11 5 9 14 13 13 9 4 13 9 7 2 4 4 7 10 7 7 6 9 9 9 14 14 16 15 12 9 9 9 12 7 7 5 6 4 15 18 10 19 33 28
25 25 22 13 3 9 14 13 12 11 2 5 5 4 7 6 5 5 2 4 4 7 9 10 14 15 16 16 11 7 9 13 10 6 9 2 6 6 6 11 8 20 37 32 30
23 24 18 14 6 5 13 16 14 3 2 7 5 3 4 5 2 6 6 5 7 10 8 12 10 13 15 16 16 17 10 11 7 6 3 12 2 7 6 9 10 15 27 32 39
22 21 17 9 5 10 21 15 6 1 3 3 2 3 6 18 5 7 8 12 11 7 10 12 24 14 18 20 19 18 14 9 4 4 7 5 6 7 9 6 5 14 32 38 36
22 18 14 6 4 9 16 12 1 2 2 4 4 4 7 9 8 8 9 5 5 10 8 11 10 5 21 15 12 19 3 5 7 3 6 7 4 6 16 24 3 17 28 35 32
22 17 7 5 5 10 11 3 3 9 11 8 9 10 10 10 5 5 7 6 8 8 5 5 6 10 18 10 5 9 4 4 6 6 3 6 2 2 10 29 40 50 25 33 32
22 11 2 2 9 7 6 1 3 5 9 9 10 7 5 7 2 3 7 5 9 10 4 5 4 19 14 13 2 6 5 9 9 4 3 4 4 1 15 22 31 37 43 32 22
23 10 4 5 6 1 1 5 4 9 8 7 4 6 7 12 9 9 5 7 6 15 14 8 6 7 15 8 11 1 1 4 6 0 4 3 1 6 1 8 13 25 30 35 25
13 7 1 6 3 6 3 3 4 10 9 6 6 6 8 7 8 8 5 6 9 10 13 7 3 7 8 2 1 6 4 3 4 3 2 3 1 5 5 8 7 10 13 25 20
6 4 5 13 2 4 1 2 1 7 10 1 2 4 5 8 5 6 7 3 7 5 4 2 4 4 12 12 6 9 3 3 2 4 5 3 0 4 9 12 17 8 7 11 7
14 6 1 10 3 4 11 8 0 3 5 5 5 6 7 6 5 5 9 16 8 5 3 4 4 5 8 4 6 6 2 3 6 9 7 1 2 5 9 11 17 22 19 18 17
8 4 5 8 16 8 8 6 9 7 3 1 3 9 5 5 6 5 8 9 7 5 10 5 2 3 4 8 3 3 8 4 5 4 5 4 3 5 6 9 18 19 18 19 13
7 6 10 4 8 13 8 8 10 10 5 1 2 7 4 3 4 8 11 10 13 12 4 5 4 5 10 13 15 8 11 9 12 15 6 4 5 10 10 9 17 20 12 14 17
7 7 10 18 16 9 6 6 9 5 9 6 7 11 8 5 5 5 8 6 3 9 8 3 3 6 7 13 16 11 15 14 24 11 9 7 3 7 13 15 17 17 18 10 18
5 11 6 10 9 8 7 0 5 7 4 7 5 3 6 8 11 12 15 17 12 5 5 4 2 2 4 10 14 8 6 4 6 7 4 4 3 4 8 13 17 25 25 20 17
Wind_Direction
353 349 345 341 336 331 326 321 317 315 311 311 313 309 306 304 298 290 280 282 253 228 267 287 291 225 245 272 267 266 320 263 271 281 295 342 12 63 119 87 86 117 147 154 199
350 347 343 340 337 332 326 320 314 311 309 305 308 313 310 308 308 297 309 277 253 245 261 262 226 251 238 259 251 233 205 240 252 270 319 338 5 346 24 34 55 137 148 135 153
349 346 343 340 337 331 326 320 314 308 306 301 301 311 312 315 323 348 358 339 237 236 253 224 236 238 235 254 255 254 233 258 275 283 297 324 343 330 336 12 330 175 157 148 168
351 348 346 344 339 334 328 320 312 308 307 300 290 302 305 311 56 324 334 334 342 235 245 225 244 255 238 241 255 254 262 247 264 277 298 316 331 321 331 316 324 88 176 162 171
354 352 352 352 353 348 338 327 319 313 307 296 287 296 299 297 271 336 322 325 340 226 223 211 254 250 239 243 258 255 254 258 261 275 276 297 294 281 305 307 316 298 175 186 188
357 355 355 357 360 358 354 351 343 332 320 302 283 277 259 262 342 306 330 299 284 237 209 223 255 261 270 281 271 286 304 299 298 284 287 262 258 276 271 285 289 282 279 205 193
358 357 354 354 353 0 3 4 358 354 345 327 280 250 242 252 184 332 320 319 307 246 201 242 283 289 300 318 304 306 305 297 291 280 262 283 276 246 258 253 263 253 262 250 271
357 357 353 351 358 2 6 359 360 11 5 26 73 252 260 295 236 263 252 261 274 236 270 280 294 305 279 292 324 331 309 289 282 265 269 234 254 228 264 244 246 255 228 236 187
356 356 353 354 1 11 2 356 360 6 26 78 51 335 279 291 267 337 248 244 237 241 247 272 312 328 315 310 325 284 265 276 278 245 243 203 237 242 255 271 226 231 185 222 112
354 354 353 353 5 27 14 8 359 9 354 291 242 316 315 6 306 326 269 242 257 225 266 257 280 236 302 295 246 263 252 254 251 274 248 232 206 234 252 274 231 183 175 130 112
353 353 353 354 18 10 31 15 6 15 324 261 277 264 324 354 305 328 159 236 256 210 246 256 201 237 245 229 234 253 273 282 289 289 318 172 179 236 255 254 142 157 191 132 114
351 351 350 351 27 360 3 17 7 324 307 271 267 260 248 320 273 217 176 209 240 239 244 273 249 241 254 261 260 259 258 273 283 285 306 298 233 218 273 277 201 180 186 135 128
349 349 344 341 347 5 344 357 349 330 279 299 228 258 206 256 286 321 171 199 257 263 242 244 261 271 253 251 258 261 271 273 264 307 317 317 293 220 237 290 279 141 182 140 133
346 344 346 345 322 349 15 359 335 330 324 195 190 174 240 253 254 188 240 259 262 259 267 266 277 269 273 281 276 245 257 273 273 285 285 52 285 276 219 245 264 135 123 127 127
345 338 349 330 331 349 350 340 329 7 11 168 92 65 291 258 351 226 192 236 267 278 287 276 271 272 276 268 277 275 234 259 278 260 267 277 266 271 268 243 232 158 138 123 121
342 335 338 313 293 356 346 318 316 350 245 122 76 55 344 339 275 184 205 237 244 251 258 267 277 272 280 284 283 282 275 257 273 241 263 239 212 275 277 277 178 150 127 122 119
339 329 322 294 252 358 339 331 358 233 229 79 30 345 336 297 300 360 306 356 317 305 302 286 259 24 31 356 339 347 262 282 253 279 225 229 252 82 10 1 229 135 121 120 120
341 329 327 49 29 6 336 351 262 351 20 28 8 324 288 269 31 336 350 328 319 21 328 1 354 39 340 334 238 322 43 269 219 219 269 354 323 59 44 26 23 33 60 104 103
347 339 134 13 4 343 322 290 323 26 17 352 322 315 316 51 349 344 359 339 30 43 19 343 312 331 343 345 22 280 303 321 296 138 66 217 227 64 26 35 29 25 30 25 94
347 357 65 119 334 49 295 256 46 60 19 356 336 339 354 355 352 359 335 41 8 38 23 335 314 318 320 16 340 263 270 8 357 110 221 221 126 228 352 59 33 34 25 22 28
347 345 173 316 267 254 239 309 38 50 62 12 6 331 340 337 344 341 323 17 41 23 359 14 339 310 343 188 161 344 15 15 183 115 300 312 133 308 336 113 79 74 37 50 358
17 309 352 341 286 216 131 43 7 38 15 12 339 291 347 11 344 324 305 340 86 15 5 70 258 295 287 292 30 112 18 68 319 315 234 216 202 114 129 148 151 171 214 203 274
347 284 93 2 18 353 360 352 67 6 37 10 340 340 16 5 331 310 334 299 99 64 85 351 345 332 336 14 64 88 249 227 258 232 249 72 187 86 121 146 167 175 192 219 211
349 320 353 349 42 22 0 312 354 143 156 307 335 320 294 286 282 282 306 322 134 171 150 116 231 238 245 270 264 296 301 267 257 256 230 217 155 204 170 161 163 178 182 197 213
4 11 8 328 344 326 332 313 300 297 140 67 220 284 283 323 322 309 321 352 1 131 178 147 222 291 292 292 300 246 263 268 260 268 280 281 191 204 204 194 205 187 151 184 203
359 356 335 303 302 313 274 240 280 358 25 354 341 340 0 341 31 348 7 10 311 352 1 354 310 330 314 311 300 329 317 224 236 269 293 305 83 147 152 136 131 163 194 202 94
329 342 330 289 298 289 271 110 348 4 317 295 340 11 317 12 360 331 310 292 276 274 286 298 324 349 275 313 325 308 268 343 26 14 7 30 91 105 75 96 82 81 78 72 66